Location: Nelson
(41.2830°S, 173.2830°E)
Time: 13:42:19
(UTC+13:00)

Cosmos 968 Rocket - Pass Details

Date: 24 January 2019
Orbit: 742 x 770 km, 74.0° (Epoch: 19 February)

Event Time Altitude Azimuth Distance (km) Brightness Sun altitude
Exits shadow 23:08:48 43° 41° (NE) 1,073 3.7 -20.2°
Maximum altitude 23:09:51 49° 76° (ENE) 982 3.7 -20.3°
Drops below altitude 10° 23:14:55 10° 150° (SSE) 2,326 6.3 -20.9°
Sets 23:17:23 0° 155° (SSE) 3,264 7.1 -21.2°
